Milwaukee, WI

10:40 PM CDT on May 28, 2017 (GMT -0500)
Gen Mitchell International

Weather History for KMKE - February, 2013

Change the Weather History Date:

Friday, February 1, 2013

  Actual Average Record
Temperature  
Mean Temperature 4 °F 23 °F  
Max Temperature 9 °F 30 °F 49 °F (1968)
Min Temperature -1 °F 16 °F -13 °F (1918)
Degree Days  
Heating Degree Days 61 42  
Month to date heating degree days 61 42  
Since 1 July heating degree days 3646 3927  
Cooling Degree Days 0 0  
Month to date cooling degree days 0 0  
Year to date cooling degree days 0 0  
Moisture  
Dew Point -4 °F    
Average Humidity 68    
Maximum Humidity 80    
Minimum Humidity 55    
Precipitation  
Precipitation 0.02 in 0.05 in 1.63 in (1915)
Month to date precipitation 0.02 0.05  
Year to date precipitation 3.19 1.81  
Snow  
Snow 0.50 in 0.40 in 10.40 in (2015)
Month to date snowfall 0.5 0.4  
Since 1 July snowfall 11.9 28.4  
Snow Depth 1.00 in    
Sea Level Pressure  
Sea Level Pressure 30.26 in    
Wind  
Wind Speed 13 mph (West)    
Max Wind Speed 21 mph    
Max Gust Speed 28 mph    
Visibility 8 miles    
Events Snow    
T = Trace of Precipitation, MM = Missing Value Source: NWS Daily Summary

Daily Weather History Graph

Daily Weather History Graph

Search for Another Location

Airport or City:

Trip Planner

Search our weather history database for the weather conditions in past years. The results will help you decide how hot, cold, wet, or windy it might be!

Date:

Astronomy

Feb. 01, 2013 Rise Set
Actual Time 7:06 AM CST 5:04 PM CST
Civil Twilight 6:36 AM CST 5:34 PM CST
Nautical Twilight 6:02 AM CST 6:08 PM CST
Astronomical Twilight 5:29 AM CST 6:42 PM CST
Moon 11:22 PM CST (2/1) 9:29 AM CST (2/1)
Length of Visible Light 10h 58m
Length of Day
9h 58m
Waning Gibbous, 70% of the Moon is Illuminated
Feb 1
Waning Gibbous
Feb 3
Last Quarter
Feb 10
New
Feb 17
First Quarter
Feb 25
Full

Hourly Weather History & Observations

Time (CST) Temp. Windchill Dew Point Humidity Pressure Visibility Wind Dir Wind Speed Gust Speed Precip Events Conditions
12:52 AM 3.9 °F -13.7 °F -5.1 °F 66% 30.16 in 10.0 mi WNW 13.8 mph 24.2 mph N/A   Partly Cloudy
1:52 AM 3.0 °F -16.1 °F -5.1 °F 69% 30.19 in 10.0 mi West 16.1 mph 23.0 mph N/A   Clear
2:52 AM 3.0 °F -14.1 °F -6.0 °F 66% 30.21 in 10.0 mi WNW 12.7 mph - N/A   Clear
3:52 AM 1.9 °F -14.7 °F -6.0 °F 69% 30.23 in 10.0 mi WNW 11.5 mph 21.9 mph N/A   Clear
4:52 AM 1.0 °F -15.8 °F -7.1 °F 69% 30.26 in 10.0 mi West 11.5 mph - N/A   Clear
5:52 AM 1.0 °F -17.3 °F -7.1 °F 69% 30.28 in 10.0 mi West 13.8 mph - N/A   Clear
6:52 AM -0.0 °F -16.3 °F -8.0 °F 69% 30.30 in 10.0 mi West 10.4 mph - N/A   Partly Cloudy
7:52 AM -0.0 °F -17.1 °F -8.0 °F 69% 30.31 in 10.0 mi West 11.5 mph - N/A   Partly Cloudy
8:52 AM -0.0 °F -20.1 °F -9.0 °F 66% 30.33 in 10.0 mi WNW 16.1 mph - N/A   Partly Cloudy
9:52 AM 1.9 °F -16.9 °F -8.0 °F 63% 30.33 in 10.0 mi West 15.0 mph - N/A   Partly Cloudy
10:52 AM 3.9 °F -14.3 °F -7.1 °F 60% 30.34 in 10.0 mi West 15.0 mph - N/A   Partly Cloudy
11:52 AM 6.1 °F -9.5 °F -6.0 °F 58% 30.32 in 10.0 mi West 11.5 mph - N/A   Partly Cloudy
12:52 PM 7.0 °F -8.3 °F -6.0 °F 55% 30.30 in 10.0 mi West 11.5 mph - N/A   Scattered Clouds
1:52 PM 7.0 °F -11.0 °F -5.1 °F 58% 30.30 in 10.0 mi WSW 16.1 mph 24.2 mph N/A   Scattered Clouds
2:52 PM 6.1 °F -10.2 °F -5.1 °F 60% 30.30 in 10.0 mi SW 12.7 mph - N/A   Scattered Clouds
3:52 PM 6.1 °F -10.9 °F -7.1 °F 55% 30.29 in 10.0 mi WSW 13.8 mph 23.0 mph N/A   Scattered Clouds
4:52 PM 5.0 °F -9.1 °F -6.0 °F 61% 30.27 in 10.0 mi WSW 9.2 mph - N/A   Scattered Clouds
5:52 PM 5.0 °F -10.0 °F -6.0 °F 61% 30.27 in 10.0 mi WSW 10.4 mph - N/A   Mostly Cloudy
6:52 PM 6.1 °F -10.9 °F -4.0 °F 63% 30.26 in 10.0 mi WSW 13.8 mph 20.7 mph N/A   Overcast
7:52 PM 7.0 °F -10.4 °F -4.0 °F 61% 30.25 in 10.0 mi WSW 15.0 mph 24.2 mph N/A   Overcast
8:52 PM 8.1 °F -7.7 °F -2.9 °F 61% 30.24 in 10.0 mi WSW 12.7 mph - 0.00 in Snow Light Snow
9:52 PM 8.1 °F -7.0 °F 1.9 °F 76% 30.23 in 3.0 mi WSW 11.5 mph - 0.00 in Snow Light Snow
10:43 PM 8.6 °F -5.5 °F 3.2 °F 79% 30.16 in 2.0 mi WSW 10.4 mph - 0.00 in Snow Light Snow
10:52 PM 8.1 °F -6.2 °F 3.9 °F 83% 30.22 in 2.0 mi WSW 10.4 mph - 0.00 in Snow Light Snow
11:03 PM 8.6 °F -4.7 °F 3.2 °F 79% 30.16 in 2.0 mi WSW 9.2 mph - 0.01 in Snow Light Snow
11:34 PM 8.6 °F -6.3 °F 3.2 °F 79% 30.15 in 1.8 mi WSW 11.5 mph - 0.01 in Snow Light Snow
11:52 PM 9.0 °F -3.2 °F 5.0 °F 84% 30.19 in 1.8 mi SW 8.1 mph - 0.02 in Snow Light Snow